Location: Bannatyne
(13.0833°N, 59.5333°W)
Time: 14:07:33
(UTC+00:00)

Vanguard 2 Rocket - Pass Details

Date: 24 January 2020
Orbit: 554 x 3326 km, 32.9° (Epoch: 04 April)

Event Time Altitude Azimuth Distance (km) Brightness Sun altitude
Rises 10:33:19 0° 314° (NW) 3,103 9.1 1.0°
Reaches altitude 10° 10:37:05 10° 345° (NNW) 2,535 8.9 1.9°
Maximum altitude 10:39:33 12° 10° (N) 2,619 9.2 2.5°
Drops below altitude 10° 10:42:29 10° 34° (NE) 3,128 9.9 3.1°
Sets 10:48:36 0° 60° (ENE) 4,819 11.2 4.5°
